When you browse on this site, cookies collect data to enhance your experience and personalize the content and advertising you see.
Visit our Privacy Policy to learn more. By continuing to use the site, you agree to this use of cookies and data.
  • In Hungary
  • List of Countries
  • For 7 days
  • Water Temperature
  • Satellite Maps
  • Weather Map
  • News
  • Weather Widgets
  • user-avatar
    Login

    Hourly Weather Ortaköy

    Today, 12 December, Wednesday

    Time Temperature Precipitation Wind Pressure Humidity
    00:00 +1°C° 1.4 mm 3 mps 650 mmHg 78%
    01:00 +2°C° 1.4 mm 2 mps 650 mmHg 84%
    02:00 +1°C° 0 mm 2 mps 650 mmHg 95%
    03:00 +1°C° 0.6 mm 1 mps 650 mmHg 95%
    04:00 +1°C° 0.6 mm 1 mps 650 mmHg 95%
    05:00 +1°C° 0.6 mm 1 mps 650 mmHg 95%
    06:00 +1°C° 0.4 mm 1 mps 650 mmHg 95%
    07:00 +1°C° 0.4 mm 1 mps 650 mmHg 95%
    08:00 -1°C° 0 mm 2 mps 650 mmHg 95%
    09:00 -1°C° 0.2 mm 2 mps 650 mmHg 93%
    10:00 +1°C° 0.2 mm 2 mps 650 mmHg 91%
    11:00 +1°C° 0.2 mm 2 mps 651 mmHg 89%
    12:00 +1°C° 0 mm 2 mps 651 mmHg 87%
    13:00 +1°C° 0 mm 2 mps 651 mmHg 85%
    14:00 +2°C° 0 mm 2 mps 651 mmHg 83%
    15:00 +1°C° 0 mm 2 mps 652 mmHg 84%
    16:00 +1°C° 0 mm 2 mps 652 mmHg 86%
    17:00 -1°C° 0 mm 2 mps 652 mmHg 87%
    18:00 -1°C° 0.1 mm 2 mps 653 mmHg 88%
    19:00 -1°C° 0.1 mm 2 mps 653 mmHg 89%
    20:00 -2°C° 0.1 mm 2 mps 654 mmHg 89%
    21:00 -2°C° 0 mm 3 mps 654 mmHg 90%
    22:00 -4°C° 0 mm 3 mps 655 mmHg 90%
    23:00 -4°C° 0 mm 3 mps 655 mmHg 90%

    Tomorrow, 13 December, Thursday

    Time Temperature Precipitation Wind Pressure Humidity
    00:00 -4°C° 0 mm 3 mps 655 mmHg 90%
    01:00 -5°C° 0 mm 3 mps 656 mmHg 89%
    02:00 -4°C° 0 mm 2 mps 656 mmHg 89%
    03:00 -5°C° 0 mm 2 mps 656 mmHg 88%
    04:00 -5°C° 0 mm 2 mps 657 mmHg 87%
    05:00 -5°C° 0 mm 2 mps 657 mmHg 86%
    06:00 -5°C° 0 mm 2 mps 657 mmHg 84%
    07:00 -3°C° 0 mm 1 mps 658 mmHg 81%
    08:00 -3°C° 0 mm 1 mps 658 mmHg 79%
    09:00 -2°C° 0 mm 1 mps 658 mmHg 73%
    10:00 -3°C° 0 mm 2 mps 659 mmHg 66%
    11:00 -2°C° 0 mm 2 mps 659 mmHg 59%
    12:00 -2°C° 0 mm 2 mps 659 mmHg 57%
    13:00 0°C° 0 mm 1 mps 659 mmHg 56%
    14:00 +1°C° 0 mm 1 mps 658 mmHg 54%
    15:00 0°C° 0 mm 1 mps 658 mmHg 57%
    16:00 -1°C° 0 mm 1 mps 658 mmHg 61%
    17:00 -2°C° 0 mm 1 mps 658 mmHg 65%
    18:00 -2°C° 0 mm 1 mps 658 mmHg 64%
    19:00 -2°C° 0 mm 1 mps 658 mmHg 63%
    20:00 -4°C° 0 mm 2 mps 658 mmHg 62%
    21:00 -4°C° 0 mm 2 mps 659 mmHg 60%
    22:00 -3°C° 0 mm 2 mps 659 mmHg 58%
    23:00 -3°C° 0 mm 2 mps 659 mmHg 57%

    Day after tomorrow, 14 December, Friday

    Time Temperature Precipitation Wind Pressure Humidity
    00:00 -3°C° 0.1 mm 2 mps 659 mmHg 57%
    01:00 -2°C° 0.1 mm 2 mps 659 mmHg 57%
    02:00 -2°C° 0.1 mm 2 mps 659 mmHg 57%
    03:00 -2°C° 0.2 mm 2 mps 658 mmHg 63%
    04:00 -2°C° 0.2 mm 2 mps 658 mmHg 68%
    05:00 0°C° 0.2 mm 1 mps 658 mmHg 74%
    06:00 -2°C° 0.2 mm 2 mps 658 mmHg 76%
    07:00 -1°C° 0.2 mm 2 mps 658 mmHg 77%
    08:00 -1°C° 0.2 mm 2 mps 659 mmHg 79%
    09:00 +1°C° 0.3 mm 2 mps 659 mmHg 80%
    10:00 +1°C° 0.3 mm 2 mps 659 mmHg 81%
    11:00 +3°C° 0.3 mm 1 mps 659 mmHg 82%
    12:00 +4°C° 0.1 mm 1 mps 659 mmHg 83%
    13:00 +4°C° 0.1 mm 1 mps 659 mmHg 83%
    14:00 +4°C° 0.1 mm 1 mps 659 mmHg 83%
    15:00 +4°C° 0 mm 1 mps 659 mmHg 84%
    16:00 +3°C° 0 mm 1 mps 659 mmHg 84%
    17:00 +3°C° 0 mm 1 mps 659 mmHg 85%
    18:00 +3°C° 0.1 mm 1 mps 659 mmHg 85%
    19:00 +3°C° 0.1 mm 1 mps 659 mmHg 85%
    20:00 +3°C° 0.1 mm 1 mps 660 mmHg 85%
    21:00 +3°C° 0 mm 1 mps 660 mmHg 85%
    22:00 +3°C° 0 mm 1 mps 660 mmHg 86%
    23:00 +3°C° 0 mm 1 mps 660 mmHg 86%

    15 December, Saturday

    Time Temperature Precipitation Wind Pressure Humidity
    00:00 +3°C° 0 mm 1 mps 660 mmHg 86%
    01:00 +2°C° 0 mm 1 mps 660 mmHg 86%
    02:00 +2°C° 0 mm 1 mps 660 mmHg 86%
    03:00 +2°C° 0 mm 1 mps 660 mmHg 85%
    04:00 +2°C° 0 mm 1 mps 659 mmHg 85%
    05:00 +2°C° 0 mm 1 mps 659 mmHg 85%
    06:00 +2°C° 0 mm 1 mps 659 mmHg 83%
    07:00 +2°C° 0 mm 1 mps 660 mmHg 82%
    08:00 +3°C° 0 mm 1 mps 660 mmHg 81%
    09:00 +4°C° 0 mm 1 mps 660 mmHg 79%
    10:00 +5°C° 0 mm 1 mps 660 mmHg 78%
    11:00 +6°C° 0 mm 1 mps 660 mmHg 77%
    12:00 +7°C° 0 mm 1 mps 660 mmHg 75%
    13:00 +7°C° 0 mm 1 mps 660 mmHg 73%
    14:00 +7°C° 0 mm 1 mps 659 mmHg 72%
    15:00 +6°C° 0 mm 1 mps 659 mmHg 73%
    16:00 +5°C° 0 mm 1 mps 659 mmHg 75%
    17:00 +3°C° 0 mm 2 mps 658 mmHg 77%
    18:00 +3°C° 0 mm 2 mps 658 mmHg 77%
    19:00 +3°C° 0 mm 2 mps 658 mmHg 77%
    20:00 +3°C° 0 mm 2 mps 658 mmHg 77%
    21:00 +3°C° 0 mm 2 mps 658 mmHg 78%
    22:00 +3°C° 0 mm 2 mps 658 mmHg 79%
    23:00 +3°C° 0 mm 2 mps 658 mmHg 79%

    16 December, Sunday

    Time Temperature Precipitation Wind Pressure Humidity
    00:00 +2°C° 0 mm 2 mps 658 mmHg 80%
    01:00 +2°C° 0 mm 2 mps 657 mmHg 80%
    02:00 +2°C° 0 mm 2 mps 657 mmHg 80%
    03:00 +1°C° 0 mm 2 mps 657 mmHg 80%
    04:00 +1°C° 0 mm 2 mps 657 mmHg 80%
    05:00 +1°C° 0 mm 2 mps 657 mmHg 80%
    06:00 +1°C° 0 mm 2 mps 657 mmHg 78%
    07:00 +2°C° 0 mm 2 mps 657 mmHg 77%
    08:00 +2°C° 0 mm 2 mps 657 mmHg 75%
    09:00 +3°C° 0 mm 2 mps 657 mmHg 72%
    10:00 +5°C° 0 mm 2 mps 657 mmHg 69%
    11:00 +7°C° 0 mm 1 mps 657 mmHg 66%
    12:00 +7°C° 0 mm 2 mps 657 mmHg 65%
    13:00 +7°C° 0 mm 2 mps 657 mmHg 63%
    14:00 +7°C° 0 mm 2 mps 656 mmHg 62%
    15:00 +6°C° 0 mm 2 mps 656 mmHg 66%
    16:00 +5°C° 0 mm 2 mps 656 mmHg 70%
    17:00 +4°C° 0 mm 2 mps 655 mmHg 74%
    18:00 +3°C° 0 mm 2 mps 656 mmHg 75%
    19:00 +3°C° 0 mm 2 mps 656 mmHg 75%
    20:00 +3°C° 0 mm 2 mps 656 mmHg 76%
    21:00 +2°C° 0 mm 2 mps 656 mmHg 77%
    22:00 +2°C° 0 mm 2 mps 656 mmHg 77%
    23:00 +2°C° 0 mm 2 mps 656 mmHg 78%

    17 December, Monday

    Time Temperature Precipitation Wind Pressure Humidity
    00:00 +2°C° 0 mm 2 mps 655 mmHg 79%
    01:00 +2°C° 0 mm 2 mps 655 mmHg 79%
    02:00 +1°C° 0 mm 2 mps 655 mmHg 80%
    03:00 +1°C° 0 mm 2 mps 655 mmHg 80%
    04:00 +1°C° 0 mm 2 mps 655 mmHg 81%
    05:00 +1°C° 0 mm 2 mps 655 mmHg 82%
    06:00 +1°C° 0 mm 2 mps 655 mmHg 81%
    07:00 +1°C° 0 mm 2 mps 655 mmHg 80%
    08:00 +2°C° 0 mm 2 mps 656 mmHg 79%
    09:00 +3°C° 0 mm 2 mps 656 mmHg 75%
    10:00 +4°C° 0 mm 2 mps 656 mmHg 71%
    11:00 +5°C° 0 mm 2 mps 656 mmHg 68%
    12:00 +6°C° 0 mm 2 mps 656 mmHg 66%
    13:00 +6°C° 0 mm 2 mps 655 mmHg 65%
    14:00 +7°C° 0 mm 2 mps 655 mmHg 64%
    15:00 +5°C° 0 mm 2 mps 655 mmHg 68%
    16:00 +4°C° 0 mm 2 mps 655 mmHg 72%
    17:00 +3°C° 0 mm 2 mps 655 mmHg 77%
    18:00 +3°C° 0 mm 2 mps 655 mmHg 78%
    19:00 +2°C° 0 mm 2 mps 656 mmHg 80%
    20:00 +3°C° 0 mm 1 mps 656 mmHg 82%
    21:00 +2°C° 0 mm 1 mps 656 mmHg 84%
    22:00 +2°C° 0 mm 1 mps 656 mmHg 85%
    23:00 +2°C° 0 mm 1 mps 656 mmHg 86%
    Show more